[[{"header":{"parameterUnit":"m.s-1","parameterCategory":2,"la1":30.2991,"la2":30.254,"lo1":-89.0895,"lo2":-89.0444,"dy":0.0017,"dx":0.0017,"nx":28,"ny":28,"refTime":"2024-06-02T03:00:00:Z","depth":"0","parameterNumber":2,"parameterNumberName":"U-component_of_CURRENTS"},"data":[0,0,0,0,0,0,0,0,0,0,0,0,0,0,0,0,0,0,0,0,0,0,0,0,0,0,0,0,0,0,0,0,0,0,0,0,0,0,0,0,0,0,0,0,0,0,0,0,0,0,0,0,0,0,0,0,0,0,0.3466,0.3467,0,0.3534,0.3534,0.3535,0.3524,0.3523,0.3522,0.3521,0.3503,0.3503,0.3503,0,0,0,0,0,0,0,0,0,0,0,0,0,0.3314,0.3317,0.3465,0.3467,0.3468,0.3534,0.3534,0.3535,0.3524,0.3523,0.3522,0.3521,0.3503,0.3503,0.3503,0,0,0,0,0,0,0,0,0,0,0,0,0,0.3377,0.3317,0.3465,0.3473,0.3475,0.3534,0.3534,0.3535,0.3524,0.3523,0.3521,0.352,0.3502,0.3503,0.3503,0.3531,0,0,0.3505,0.3505,0,0,0,0,0,0,0,0,0.3374,0.3382,0.3471,0.3473,0.3475,0.3522,0.3474,0.3531,0.3524,0.3501,0.3521,0.352,0.3504,0.3505,0.3516,0.353,0.353,0.3505,0.3505,0.3505,0.3505,0,0,0,0,0,0,0,0.3369,0.3379,0.3489,0.3472,0.3475,0.3469,0.3477,0.3485,0.3505,0.3503,0.3503,0.3517,0.3504,0.3516,0.3516,0.3529,0.3505,0.3505,0.3505,0.3505,0.3614,0.3616,0,0,0,0,0,0,0.3371,0.3376,0.3487,0.3491,0.3424,0.3473,0.3481,0.3505,0.3506,0.3507,0.3518,0.3517,0.3516,0.3515,0.3515,0.3588,0.3505,0.3506,0.3506,0.3611,0.3614,0.3617,0,0,0,0,0,0,0.3368,0.3381,0.3484,0.3437,0.345,0.3478,0.3504,0.3507,0.3524,0.352,0.3518,0.3533,0.3515,0.3514,0.3546,0.3585,0.3506,0.3506,0.3608,0.3612,0.3616,0.3707,0,0,0,0,0,0,0.3363,0.3379,0.3397,0.3438,0.3453,0.3531,0.3506,0.351,0.3536,0.3535,0.3532,0.3529,0.3514,0.3545,0.3546,0.3584,0.3506,0.3605,0.361,0.3615,0.3701,0.3714,0.3725,0,0,0,0,0,0.3358,0.339,0.3397,0.3411,0.3477,0.3533,0.354,0.3552,0.3538,0.3559,0.3563,0.3529,0.3577,0.3548,0.3548,0.3587,0.3602,0.3609,0.3614,0.3695,0.3711,0.3724,0,0,0,0,0,0,0.3327,0.3394,0.3402,0.3451,0.3493,0.3532,0.3557,0.3562,0.3583,0.358,0.3561,0.3561,0.3608,0.3589,0.3558,0.3636,0.3585,0.3591,0.3646,0.3661,0.3673,0.3695,0.3507,0,0,0,0,0,0.3332,0.3379,0.3431,0.3472,0.3497,0.3528,0.3551,0.3563,0.3589,0.3597,0.3596,0.3604,0.3634,0.3639,0.3657,0.3694,0.3722,0.3721,0.3733,0.3743,0.3764,0.3861,0.3884,0.3637,0.3637,0.3636,0,0,0.3328,0.3375,0.3398,0.347,0.3502,0.3549,0.3538,0.3587,0.3622,0.3592,0.3634,0.3648,0.3657,0.3708,0.3725,0.3693,0.3829,0.375,0.3759,0.3775,0.387,0.3894,0.3915,0.3641,0.364,0.3639,0,0,0.3351,0.3392,0.3437,0.3481,0.3545,0.3572,0.3589,0.3637,0.3656,0.3702,0.3703,0.3753,0.3764,0.3802,0.3817,0.3908,0.3896,0.3899,0.3968,0.4062,0.4083,0.4102,0.4171,0.4195,0.3896,0.3896,0.3896,0,0.3338,0.3409,0.3456,0.3511,0.3551,0.3585,0.3633,0.3669,0.3717,0.3758,0.3723,0.3822,0.382,0.392,0.3947,0.3938,0.3975,0.3908,0.4079,0.4098,0.4116,0.4182,0.4208,0.3901,0.39,0.39,0.3899,0,0.3395,0.3451,0.3485,0.3568,0.3614,0.3668,0.3724,0.3774,0.3793,0.3833,0.3931,0.395,0.4013,0.402,0.4004,0.4137,0.4118,0.4089,0.4041,0.4147,0.4209,0.4234,0.3908,0.3906,0.3905,0.3904,0,0,0.3362,0.3498,0.3506,0.3556,0.365,0.3694,0.3776,0.3871,0.3935,0.3986,0.4078,0.4146,0.417,0.4191,0.4195,0.4263,0.4414,0.4226,0.4228,0.4292,0.4614,0.4536,0.4555,0.4411,0.4416,0.442,0.4606,0,0.3388,0.3495,0.3558,0.3649,0.3706,0.3779,0.3852,0.3943,0.4006,0.4102,0.4175,0.4253,0.4231,0.4262,0.4343,0.4398,0.4484,0.4365,0.4503,0.4508,0.4425,0.4584,0.4353,0.4494,0.4631,0.4635,0.4638,0,0.3409,0.3487,0.358,0.3707,0.3738,0.3794,0.3929,0.4,0.4152,0.4204,0.432,0.4369,0.451,0.4447,0.4643,0.4566,0.4611,0.4641,0.4648,0.4563,0.4478,0.4412,0.4535,0.4408,0.4676,0.4673,0.467,0,0.3357,0.3494,0.3571,0.3613,0.376,0.3819,0.3893,0.4033,0.4114,0.4276,0.4356,0.4515,0.4599,0.4704,0.478,0.4726,0.4969,0.4901,0.4884,0.4878,0.4704,0.4674,0.4719,0.5057,0.5056,0.5056,0.5055,0,0.3356,0.3411,0.3554,0.3596,0.3689,0.3795,0.3902,0.4001,0.4157,0.4274,0.4405,0.4525,0.4668,0.4811,0.4857,0.4967,0.5051,0.4947,0.4944,0.4728,0.4699,0.4594,0.4532,0.5063,0.5061,0.506,0.5059,0,0.3282,0.3377,0.3467,0.3621,0.3665,0.3726,0.3886,0.3972,0.4126,0.4285,0.4346,0.4577,0.4769,0.4898,0.5073,0.5064,0.5017,0.517,0.4895,0.4857,0.4678,0.4628,0.4546,0.4417,0.5192,0.5192,0.5191,0,0.3253,0.3296,0.3452,0.3501,0.3568,0.3675,0.3753,0.3924,0.4028,0.4312,0.4394,0.4637,0.4776,0.502,0.5062,0.5164,0.5019,0.4995,0.4853,0.4686,0.463,0.4451,0.4335,0.4664,0.466,0.4656,0.4653,0,0.3191,0.3248,0.333,0.3434,0.3515,0.3615,0.3746,0.3819,0.4042,0.4177,0.4384,0.4514,0.4765,0.478,0.4919,0.4942,0.4727,0.4918,0.4828,0.431,0.4038,0.3903,0.4516,0.4618,0.4622,0.4624,0.4626,0.4628,0.3125,0.3162,0.3272,0.336,0.3444,0.3534,0.3558,0.3716,0.3844,0.4007,0.4244,0.4343,0.4479,0.464,0.4641,0.4503,0.4521,0.436,0.4346,0.4206,0.3973,0.4509,0.4549,0.4552,0.4554,0.4556,0.4558,0,0.3041,0.3104,0.3189,0.3275,0.3308,0.3408,0.3529,0.3526,0.3592,0.3792,0.392,0.4017,0.4042,0.4127,0.4104,0.3949,0.3753,0.385,0.354,0.3481,0.4039,0.3904,0.3704,0.3704,0.3704,0.3704,0.3704,0.3704,0.3,0.3043,0.31,0.3118,0.3164,0.3149,0.3179,0.3199,0.3289,0.3331,0.3367,0.3499,0.3694,0.3754,0.3616,0.3531,0.3263,0.3103,0.3151,0.3534,0.3579,0.3622,0.3482,0.3196,0.3196,0.2403,0.2397,0.2392]},{"header":{"parameterUnit":"m.s-1","parameterCategory":2,"la1":30.2991,"la2":30.254,"lo1":-89.0895,"lo2":-89.0444,"dy":0.0017,"dx":0.0017,"nx":28,"ny":28,"refTime":"2024-06-02T03:00:00:Z","depth":"0","parameterNumber":3,"parameterNumberName":"V-component_of_CURRENTS"},"data":[0,0,0,0,0,0,0,0,0,0,0,0,0,0,0,0,0,0,0,0,0,0,0,0,0,0,0,0,0,0,0,0,0,0,0,0,0,0,0,0,0,0,0,0,0,0,0,0,0,0,0,0,0,0,0,0,0,0,0.0108,0.0107,0,0.005,0.0049,0.0048,0.0005,0.0005,0.0004,0.0004,-0.0077,-0.0079,-0.0081,0,0,0,0,0,0,0,0,0,0,0,0,0,0.0151,0.015,0.0108,0.0107,0.0106,0.005,0.0049,0.0048,0.0005,0.0005,0.0004,0.0004,-0.0076,-0.0079,-0.0081,0,0,0,0,0,0,0,0,0,0,0,0,0,0.0116,0.015,0.0108,0.0079,0.0076,0.005,0.0049,0.0048,0.0005,0.0005,0.0004,0.0004,-0.0076,-0.0078,-0.0081,-0.009,0,0,-0.009,-0.0091,0,0,0,0,0,0,0,0,0.0118,0.0114,0.0084,0.0081,0.0077,0.0035,0.0035,0.0001,0.0005,0.0031,0.0004,0.0004,-0.0041,-0.0046,-0.0057,-0.0093,-0.0097,-0.009,-0.0092,-0.0093,-0.0094,0,0,0,0,0,0,0,0.012,0.0116,0.0084,0.0083,0.0079,0.0059,0.0053,0.0028,-0.0003,0.0029,0.0026,0.0021,-0.0043,-0.0055,-0.006,-0.0098,-0.009,-0.0093,-0.0094,-0.0095,-0.0153,-0.0153,0,0,0,0,0,0,0.0132,0.0119,0.0086,0.0082,0.0098,0.0058,0.0052,0.0048,-0.0002,-0.001,0.0021,0.0019,-0.005,-0.0056,-0.0063,-0.006,-0.0093,-0.0096,-0.0097,-0.0153,-0.0153,-0.0153,0,0,0,0,0,0,0.0133,0.0129,0.0088,0.01,0.0093,0.0059,0.0054,0.0047,0.0039,-0.0007,-0.0016,0.002,-0.005,-0.0059,-0.0081,-0.0064,-0.0097,-0.01,-0.0154,-0.0153,-0.0153,-0.0064,0,0,0,0,0,0,0.0134,0.013,0.0134,0.0101,0.0093,0.0082,0.0054,0.0047,0.0037,0.0033,-0.0011,-0.002,-0.0051,-0.0076,-0.0084,-0.0068,-0.0102,-0.0154,-0.0153,-0.0153,-0.0067,-0.0061,-0.0056,0,0,0,0,0,0.0136,0.0149,0.0134,0.013,0.0098,0.0083,0.0077,0.005,0.0037,0.0039,0.0007,-0.0018,-0.008,-0.0078,-0.0087,-0.0072,-0.0154,-0.0154,-0.0153,-0.007,-0.0062,-0.0056,0,0,0,0,0,0,0.0172,0.0145,0.0128,0.0132,0.0111,0.0076,0.0078,0.0057,0.0033,0.0032,-0.0014,-0.0025,-0.004,-0.0071,-0.0068,-0.0091,-0.0122,-0.0123,-0.0056,-0.0049,-0.0043,0.0003,-0.0104,0,0,0,0,0,0.0181,0.0183,0.015,0.0155,0.0147,0.0113,0.0104,0.0087,0.006,0.005,0.0016,-0.0019,-0.0046,-0.0058,-0.009,-0.0097,-0.0105,-0.0096,-0.009,-0.0085,-0.0055,-0.0056,-0.0046,-0.0152,-0.0152,-0.0152,0,0,0.0195,0.0183,0.0183,0.0163,0.0145,0.0149,0.0107,0.0103,0.011,0.0045,0.0043,-0.0001,-0.0046,-0.0057,-0.0066,-0.0078,-0.0062,-0.0084,-0.0079,-0.0051,-0.0054,-0.0043,-0.0034,-0.0152,-0.0152,-0.0152,0,0,0.0233,0.0215,0.0229,0.0218,0.0199,0.0182,0.0184,0.0151,0.014,0.0127,0.0084,0.0058,0.001,-0.001,-0.0029,-0.0008,-0.0034,-0.0029,0.0046,0.0044,0.0054,0.0063,0.0062,0.007,-0.0021,-0.0021,-0.002,0,0.0252,0.0265,0.0232,0.0243,0.0246,0.0203,0.0223,0.0208,0.0172,0.0175,0.0138,0.0088,0.0039,0.0047,0.0046,0.0009,0.0005,0.0026,0.0056,0.0064,0.0071,0.0069,0.0077,-0.0016,-0.0017,-0.0017,-0.0018,0,0.0297,0.0308,0.0318,0.0321,0.0318,0.033,0.0305,0.0304,0.028,0.0261,0.0254,0.0189,0.0168,0.0136,0.0096,0.0123,0.0101,0.0062,0.0048,0.0088,0.0082,0.0088,-0.001,-0.0012,-0.0013,-0.0014,0,0,0.0347,0.035,0.0356,0.0376,0.0363,0.0373,0.0387,0.0395,0.0428,0.0376,0.0415,0.0343,0.0314,0.0292,0.0237,0.0228,0.0254,0.0176,0.0174,0.0194,0.0261,0.0224,0.0226,0.0223,0.0225,0.0226,0.0236,0,0.0396,0.0442,0.0427,0.0481,0.0504,0.0479,0.0506,0.0507,0.0495,0.052,0.0463,0.047,0.0373,0.0373,0.0349,0.0285,0.0276,0.0256,0.0204,0.0203,0.018,0.0234,0.0227,0.0233,0.0241,0.0242,0.0243,0,0.0452,0.0477,0.0534,0.0576,0.0586,0.0615,0.0665,0.0683,0.0696,0.0688,0.068,0.0637,0.0624,0.0531,0.0465,0.046,0.0376,0.0315,0.0313,0.026,0.0178,0.0192,0.0244,0.0047,0.0252,0.0252,0.0251,0,0.0521,0.056,0.0615,0.0626,0.0659,0.0695,0.0721,0.0741,0.0786,0.0811,0.0855,0.0806,0.0818,0.0709,0.0571,0.0527,0.05,0.0418,0.0308,0.0303,0.0279,0.0271,0.0155,0.0379,0.0379,0.0379,0.0379,0,0.0588,0.0635,0.0658,0.0695,0.0784,0.0776,0.0876,0.0891,0.0943,0.1037,0.0961,0.1036,0.0866,0.0819,0.0654,0.0522,0.0564,0.0351,0.0315,0.0306,0.03,0.0111,0.0005,0.0379,0.0379,0.0379,0.0379,0,0.0654,0.0667,0.074,0.0793,0.0821,0.0889,0.0982,0.1053,0.1091,0.1218,0.1243,0.1234,0.1183,0.0997,0.0844,0.0656,0.0402,0.0442,0.0445,0.0409,0.0091,-0.0009,-0.0125,-0.0202,0.0324,0.0323,0.0323,0,0.0691,0.0735,0.082,0.088,0.0912,0.1005,0.1078,0.1127,0.1215,0.1356,0.1438,0.1436,0.1467,0.1222,0.0899,0.0625,0.0423,0.0404,0.0303,0.0101,-0.0037,-0.011,-0.0171,0.0303,0.0302,0.0302,0.0301,0,0.0764,0.0796,0.0861,0.0981,0.1071,0.1176,0.1289,0.1384,0.1479,0.1606,0.1776,0.182,0.1598,0.1332,0.0929,0.0713,0.0265,0.0382,0.018,-0.0043,-0.0132,-0.0232,0.0262,0.0296,0.0297,0.0297,0.0297,0.0297,0.0824,0.0885,0.0976,0.1094,0.1203,0.1351,0.1461,0.1602,0.1788,0.2,0.2021,0.2125,0.1696,0.1162,0.0846,0.0225,0.0234,0.0007,-0.0088,-0.0137,-0.0238,0.0247,0.0227,0.0227,0.0227,0.0227,0.0227,0,0.0891,0.0963,0.108,0.1232,0.1368,0.1408,0.1604,0.1733,0.1977,0.2167,0.2317,0.2161,0.1636,0.1076,0.0249,-0.0177,-0.0322,-0.0412,-0.0527,-0.0561,-0.0122,-0.0154,-0.0264,-0.0264,-0.0264,-0.0264,-0.0263,-0.0263,0.0932,0.1049,0.1112,0.1347,0.1459,0.1647,0.1767,0.1974,0.2141,0.2371,0.2431,0.2441,0.1987,0.0565,-0.041,-0.0631,-0.0894,-0.0964,-0.1088,-0.0823,-0.0792,-0.0762,-0.0819,-0.1067,-0.1068,-0.1482,-0.1486,-0.149]}],[{"header":{"parameterUnit":"m.s-1","parameterCategory":2,"la1":30.2991,"la2":30.254,"lo1":-89.0895,"lo2":-89.0444,"dy":0.0017,"dx":0.0017,"nx":28,"ny":28,"refTime":"2024-06-02T03:00:00:Z","depth":"2","parameterNumber":2,"parameterNumberName":"U-component_of_CURRENTS"},"data":[0,0,0,0,0,0,0,0,0,0,0,0,0,0,0,0,0,0,0,0,0,0,0,0,0,0,0,0,0,0,0,0,0,0,0,0,0,0,0,0,0,0,0,0,0,0,0,0,0,0,0,0,0,0,0,0,0,0,0.2828,0.2829,0,0.2853,0.2853,0.2853,0.285,0.285,0.285,0.285,0.2874,0.2874,0.2875,0,0,0,0,0,0,0,0,0,0,0,0,0,0.2777,0.2778,0.2828,0.2829,0.2829,0.2853,0.2853,0.2853,0.285,0.285,0.285,0.285,0.2873,0.2874,0.2875,0,0,0,0,0,0,0,0,0,0,0,0,0,0.2797,0.2778,0.2828,0.2833,0.2834,0.2853,0.2853,0.2853,0.285,0.285,0.285,0.285,0.2873,0.2874,0.2875,0.2884,0,0,0.2879,0.2879,0,0,0,0,0,0,0,0,0.2796,0.2798,0.2832,0.2833,0.2834,0.2852,0.2844,0.2865,0.285,0.284,0.285,0.285,0.2869,0.287,0.287,0.2886,0.2887,0.2879,0.2879,0.288,0.288,0,0,0,0,0,0,0,0.2794,0.2797,0.2834,0.2833,0.2834,0.2835,0.2837,0.2848,0.2852,0.2841,0.2842,0.2851,0.2869,0.2869,0.2871,0.2887,0.2879,0.288,0.288,0.2881,0.2972,0.2974,0,0,0,0,0,0,0.2799,0.2796,0.2834,0.2836,0.2818,0.2836,0.2838,0.2843,0.2852,0.2854,0.2851,0.285,0.2867,0.2869,0.2871,0.2957,0.288,0.2881,0.2881,0.297,0.2972,0.2974,0,0,0,0,0,0,0.2798,0.2802,0.2833,0.2819,0.2824,0.2837,0.2843,0.2844,0.2862,0.286,0.2861,0.287,0.2867,0.287,0.2898,0.2955,0.2881,0.2882,0.2968,0.2971,0.2973,0.308,0,0,0,0,0,0,0.2796,0.2801,0.2807,0.282,0.2825,0.2857,0.2843,0.2845,0.2868,0.2868,0.2876,0.2877,0.2867,0.2897,0.2899,0.2955,0.2883,0.2966,0.2969,0.2972,0.3074,0.3086,0.3096,0,0,0,0,0,0.2794,0.2803,0.2807,0.2812,0.2832,0.2858,0.2861,0.2867,0.2869,0.2882,0.2889,0.2878,0.292,0.2899,0.2901,0.2959,0.2964,0.2968,0.2972,0.3069,0.3083,0.3095,0,0,0,0,0,0,0.2784,0.2805,0.2809,0.2824,0.2847,0.2859,0.2873,0.2881,0.2897,0.2903,0.2895,0.2897,0.2948,0.2932,0.2909,0.2993,0.2943,0.2948,0.3016,0.3029,0.304,0.3039,0.2884,0,0,0,0,0,0.2786,0.2798,0.2821,0.2835,0.285,0.2866,0.2879,0.289,0.2906,0.2913,0.2925,0.2939,0.2964,0.2978,0.2992,0.3033,0.305,0.3072,0.3083,0.3092,0.3092,0.319,0.321,0.2987,0.2987,0.2987,0,0,0.2787,0.2801,0.2807,0.2835,0.2852,0.2886,0.2873,0.2906,0.2938,0.2915,0.2964,0.298,0.2983,0.3034,0.3056,0.303,0.3165,0.3097,0.3105,0.31,0.3196,0.3218,0.3238,0.299,0.299,0.2989,0,0,0.2799,0.281,0.2827,0.2855,0.2893,0.2908,0.2925,0.2959,0.2976,0.3021,0.3024,0.3071,0.3096,0.3123,0.3135,0.3212,0.3221,0.3221,0.3277,0.3373,0.3393,0.341,0.3463,0.3484,0.3225,0.3225,0.3226,0,0.28,0.2824,0.2838,0.2873,0.2903,0.2925,0.2965,0.2989,0.3031,0.3065,0.3049,0.314,0.3142,0.3223,0.3245,0.3242,0.328,0.323,0.339,0.3408,0.3424,0.3474,0.3496,0.3231,0.323,0.323,0.3229,0,0.2832,0.2858,0.2876,0.2926,0.2962,0.2999,0.3044,0.3087,0.3116,0.3152,0.324,0.3253,0.331,0.3326,0.3302,0.3424,0.3409,0.3398,0.3361,0.3453,0.3499,0.3521,0.3239,0.3237,0.3235,0.3234,0,0,0.2812,0.2882,0.2888,0.2921,0.2995,0.3025,0.3099,0.3172,0.3232,0.3285,0.337,0.3421,0.3448,0.3462,0.3466,0.3531,0.3672,0.3511,0.3514,0.3571,0.387,0.3741,0.3751,0.3703,0.3708,0.3711,0.3857,0,0.2831,0.289,0.2931,0.3001,0.3037,0.31,0.3166,0.3244,0.3304,0.3393,0.3448,0.3526,0.3496,0.3537,0.3606,0.3658,0.3733,0.3632,0.3764,0.3767,0.3649,0.3773,0.3461,0.3555,0.3878,0.3881,0.3884,0,0.2841,0.2883,0.2949,0.3038,0.3063,0.3118,0.3237,0.33,0.3432,0.3492,0.3596,0.3636,0.3751,0.3702,0.3865,0.3808,0.3848,0.3875,0.3883,0.3736,0.3678,0.3515,0.3581,0.3919,0.3916,0.3913,0.3911,0,0.2799,0.2889,0.2938,0.2973,0.3085,0.3139,0.3206,0.3336,0.3411,0.3567,0.3657,0.378,0.3864,0.3948,0.4,0.3959,0.4161,0.4117,0.404,0.403,0.3773,0.3732,0.4244,0.4244,0.4244,0.4243,0.4243,0,0.2785,0.2825,0.2925,0.2952,0.3037,0.3124,0.3228,0.3323,0.3473,0.3583,0.3707,0.3809,0.3936,0.4049,0.4072,0.4125,0.4238,0.4073,0.4076,0.3797,0.3759,0.4067,0.4045,0.4249,0.4247,0.4246,0.4245,0,0.2724,0.2787,0.2857,0.2975,0.3013,0.3079,0.3231,0.33,0.3471,0.3622,0.3685,0.3883,0.4024,0.4121,0.4261,0.4218,0.4274,0.426,0.39,0.3856,0.4056,0.4037,0.4197,0.4194,0.4192,0.4189,0.4188,0,0.2695,0.2721,0.2848,0.2893,0.2948,0.3051,0.311,0.3278,0.3368,0.3644,0.371,0.3912,0.3997,0.4157,0.4138,0.4178,0.426,0.3894,0.3745,0.4072,0.4061,0.4046,0.4031,0.3454,0.3446,0.344,0.3435,0,0.2645,0.2697,0.2746,0.2828,0.2897,0.2979,0.3088,0.3158,0.3363,0.3491,0.3657,0.3746,0.3912,0.3797,0.3857,0.383,0.3855,0.3764,0.426,0.3496,0.3379,0.3364,0.3373,0.338,0.3385,0.3389,0.3392,0.3395,0.2601,0.2627,0.2684,0.2759,0.2832,0.2886,0.2896,0.3001,0.3099,0.3236,0.3423,0.345,0.3522,0.3429,0.3355,0.3318,0.3568,0.3404,0.3421,0.3445,0.3315,0.3198,0.314,0.3143,0.3147,0.315,0.3153,0,0.2529,0.2563,0.261,0.2678,0.2689,0.2776,0.2854,0.2813,0.2829,0.2964,0.3029,0.2818,0.2767,0.2869,0.2722,0.2727,0.2685,0.262,0.2536,0.2595,0.2646,0.2472,0.2075,0.2071,0.2067,0.2064,0,0,0.2493,0.2484,0.2505,0.2503,0.2552,0.2512,0.2519,0.2464,0.25,0.2432,0.2422,0.2601,0.2761,0.2353,0.2323,0.2173,0.2355,0.2091,0.2964,0.2922,0.2968,0.3118,0.2919,0,0,0,0,0]},{"header":{"parameterUnit":"m.s-1","parameterCategory":2,"la1":30.2991,"la2":30.254,"lo1":-89.0895,"lo2":-89.0444,"dy":0.0017,"dx":0.0017,"nx":28,"ny":28,"refTime":"2024-06-02T03:00:00:Z","depth":"2","parameterNumber":3,"parameterNumberName":"V-component_of_CURRENTS"},"data":[0,0,0,0,0,0,0,0,0,0,0,0,0,0,0,0,0,0,0,0,0,0,0,0,0,0,0,0,0,0,0,0,0,0,0,0,0,0,0,0,0,0,0,0,0,0,0,0,0,0,0,0,0,0,0,0,0,0,-0.0026,-0.0026,0,-0.0076,-0.0077,-0.0077,-0.011,-0.011,-0.011,-0.0111,-0.0169,-0.0171,-0.0172,0,0,0,0,0,0,0,0,0,0,0,0,0,0.002,0.002,-0.0026,-0.0027,-0.0027,-0.0076,-0.0077,-0.0077,-0.011,-0.011,-0.0111,-0.0111,-0.0169,-0.017,-0.0172,0,0,0,0,0,0,0,0,0,0,0,0,0,-0.0012,0.0019,-0.0026,-0.0049,-0.0052,-0.0076,-0.0077,-0.0078,-0.011,-0.011,-0.0111,-0.0111,-0.0168,-0.017,-0.0172,-0.018,0,0,-0.0179,-0.018,0,0,0,0,0,0,0,0,-0.001,-0.0014,-0.0045,-0.0047,-0.005,-0.0087,-0.0082,-0.0112,-0.011,-0.0088,-0.0111,-0.0111,-0.0142,-0.0146,-0.0156,-0.0183,-0.0185,-0.0179,-0.018,-0.0181,-0.0182,0,0,0,0,0,0,0,-0.0008,-0.0012,-0.0046,-0.0046,-0.0049,-0.0064,-0.0069,-0.0088,-0.0114,-0.009,-0.0093,-0.0097,-0.0143,-0.0153,-0.0157,-0.0186,-0.0179,-0.0181,-0.0182,-0.0183,-0.0227,-0.0227,0,0,0,0,0,0,0.0,-0.001,-0.0045,-0.0048,-0.003,-0.0065,-0.007,-0.0075,-0.0113,-0.0119,-0.0097,-0.0099,-0.015,-0.0155,-0.0159,-0.0161,-0.0181,-0.0183,-0.0184,-0.0227,-0.0227,-0.0227,0,0,0,0,0,0,0.0002,-0.0002,-0.0043,-0.003,-0.0036,-0.0065,-0.0071,-0.0076,-0.0083,-0.0118,-0.0124,-0.0098,-0.015,-0.0156,-0.0171,-0.0164,-0.0184,-0.0186,-0.0227,-0.0227,-0.0227,-0.0171,0,0,0,0,0,0,0.0003,-0.0001,0.0001,-0.0029,-0.0036,-0.0048,-0.0071,-0.0077,-0.0085,-0.0088,-0.0121,-0.0127,-0.0151,-0.0167,-0.0173,-0.0167,-0.0187,-0.0227,-0.0227,-0.0227,-0.0173,-0.0169,-0.0166,0,0,0,0,0,0.0005,0.0013,0.0001,-0.0003,-0.0033,-0.0048,-0.0052,-0.0075,-0.0085,-0.0083,-0.0106,-0.0126,-0.017,-0.0168,-0.0175,-0.017,-0.0227,-0.0227,-0.0227,-0.0175,-0.017,-0.0166,0,0,0,0,0,0,0.0037,0.001,-0.0004,-0.0004,-0.0022,-0.0053,-0.0052,-0.0069,-0.0086,-0.0087,-0.0122,-0.0129,-0.0142,-0.0163,-0.0161,-0.0184,-0.0203,-0.0204,-0.0162,-0.0157,-0.0154,-0.0122,-0.0189,0,0,0,0,0,0.0045,0.0042,0.0013,0.0014,0.0007,-0.0022,-0.0029,-0.0044,-0.0065,-0.0073,-0.0099,-0.0125,-0.0147,-0.0157,-0.018,-0.0188,-0.0202,-0.0191,-0.0188,-0.0184,-0.0163,-0.0179,-0.0174,-0.0226,-0.0226,-0.0226,0,0,0.0057,0.0043,0.004,0.0021,0.0005,0.0009,-0.0027,-0.0032,-0.0027,-0.0077,-0.0077,-0.0113,-0.0147,-0.0159,-0.0166,-0.0174,-0.018,-0.0184,-0.0181,-0.0161,-0.0178,-0.0173,-0.0168,-0.0226,-0.0226,-0.0226,0,0,0.0086,0.0069,0.0077,0.0067,0.0049,0.0035,0.0036,0.0008,-0.0002,-0.0012,-0.0047,-0.0073,-0.0106,-0.0129,-0.0144,-0.0133,-0.0161,-0.0148,-0.0101,-0.0117,-0.0112,-0.0108,-0.0129,-0.0127,-0.0145,-0.0145,-0.0145,0,0.0104,0.011,0.0079,0.0087,0.0089,0.0052,0.0069,0.0054,0.0025,0.0024,-0.0002,-0.005,-0.0088,-0.0095,-0.0098,-0.0123,-0.0137,-0.0114,-0.011,-0.0106,-0.0103,-0.0125,-0.0124,-0.0142,-0.0142,-0.0143,-0.0143,0,0.0138,0.0144,0.0152,0.0151,0.0149,0.0158,0.0136,0.0132,0.0112,0.0093,0.0076,0.0021,-0.0001,-0.003,-0.0062,-0.006,-0.008,-0.0104,-0.0116,-0.0094,-0.012,-0.0119,-0.0138,-0.0139,-0.014,-0.0141,0,0,0.0181,0.0177,0.0182,0.0198,0.0186,0.0194,0.0203,0.0204,0.0225,0.0176,0.0196,0.013,0.0099,0.0079,0.0029,0.0006,-0.0003,-0.0034,-0.0037,-0.0044,-0.0038,-0.0079,-0.0083,-0.0025,-0.0024,-0.0024,-0.0068,0,0.0222,0.0255,0.0241,0.0286,0.0306,0.0282,0.0301,0.0295,0.0281,0.0289,0.0226,0.0223,0.0142,0.0136,0.0098,0.0032,0.0002,0.0011,-0.0065,-0.0067,-0.0098,-0.0082,-0.0048,-0.0086,-0.0067,-0.0067,-0.0067,0,0.0267,0.0285,0.0332,0.0364,0.0372,0.0397,0.0431,0.0442,0.0434,0.0422,0.0396,0.0351,0.0311,0.0241,0.0142,0.0153,0.0068,0.0004,0.0,-0.005,-0.0107,-0.0104,-0.0086,-0.0067,-0.0067,-0.0067,-0.0067,0,0.0325,0.0355,0.0401,0.0409,0.0434,0.0461,0.0482,0.0487,0.0521,0.0518,0.0548,0.0472,0.0465,0.0348,0.0204,0.0181,0.0095,0.0045,-0.0075,-0.0079,-0.007,-0.0075,-0.0021,-0.0021,-0.0021,-0.0021,-0.0021,0,0.0379,0.0419,0.0436,0.0465,0.0539,0.0531,0.0611,0.0615,0.0646,0.0718,0.0632,0.0672,0.0495,0.0417,0.0259,0.0102,0.0136,-0.0054,-0.0087,-0.0053,-0.0056,-0.0054,-0.0057,-0.0022,-0.0022,-0.0022,-0.0021,0,0.0433,0.0442,0.0505,0.0547,0.057,0.0627,0.0706,0.0762,0.0782,0.0877,0.089,0.0836,0.0736,0.0541,0.036,0.0195,0.0032,-0.0038,0.0008,-0.002,-0.0149,-0.0149,-0.017,-0.0172,-0.0173,-0.0175,-0.0176,0,0.0463,0.0498,0.057,0.0624,0.065,0.073,0.0792,0.0829,0.0904,0.0989,0.1051,0.0984,0.0949,0.0653,0.0359,0.0078,0.0035,-0.0086,-0.0135,-0.013,-0.0161,-0.0159,-0.0157,-0.0106,-0.0106,-0.0106,-0.0107,0,0.0527,0.0552,0.0603,0.0705,0.0786,0.0882,0.0981,0.1061,0.1133,0.1217,0.1312,0.1288,0.1015,0.0733,0.0332,0.0142,-0.0044,-0.0103,-0.0084,-0.008,-0.0075,-0.0104,-0.0103,-0.0109,-0.0109,-0.0109,-0.0109,-0.0109,0.058,0.0627,0.0697,0.08,0.09,0.1032,0.1126,0.1239,0.1377,0.1498,0.1472,0.1436,0.1119,0.0599,0.0275,-0.0066,-0.0061,-0.019,-0.0187,-0.0183,-0.0175,-0.0173,-0.0224,-0.0225,-0.0225,-0.0225,-0.0225,0,0.0638,0.0693,0.0787,0.0918,0.1037,0.108,0.1252,0.1344,0.1518,0.1591,0.1637,0.1331,0.1011,0.0654,0.0148,-0.0166,-0.0178,-0.026,-0.0204,-0.0199,-0.0195,-0.0186,-0.0239,-0.024,-0.0241,-0.0242,0,0,0.0674,0.0764,0.0809,0.1013,0.1114,0.1279,0.1383,0.1515,0.1599,0.1656,0.1625,0.1524,0.1109,0.0734,0.0325,0.0046,-0.0007,-0.0011,0.0035,0.0155,0.0162,-0.0121,-0.0097,0,0,0,0,0]}],[{"header":{"parameterUnit":"m.s-1","parameterCategory":2,"la1":30.2991,"la2":30.254,"lo1":-89.0895,"lo2":-89.0444,"dy":0.0017,"dx":0.0017,"nx":28,"ny":28,"refTime":"2024-06-02T03:00:00:Z","depth":"4","parameterNumber":2,"parameterNumberName":"U-component_of_CURRENTS"},"data":[0,0,0,0,0,0,0,0,0,0,0,0,0,0,0,0,0,0,0,0,0,0,0,0,0,0,0,0,0,0,0,0,0,0,0,0,0,0,0,0,0,0,0,0,0,0,0,0,0,0,0,0,0,0,0,0,0,0,0.1737,0.1737,0,0.1778,0.1778,0.1778,0.1825,0.1825,0.1826,0.1827,0.1873,0.1873,0.1874,0,0,0,0,0,0,0,0,0,0,0,0,0,0.1715,0.1715,0.1737,0.1737,0.1738,0.1778,0.1778,0.1779,0.1824,0.1825,0.1826,0.1827,0.1873,0.1873,0.1874,0,0,0,0,0,0,0,0,0,0,0,0,0,0.1735,0.1715,0.1737,0.1767,0.177,0.1778,0.1778,0.1779,0.1824,0.1825,0.1827,0.1828,0.1873,0.1873,0.1874,0.1853,0,0,0.1876,0.1876,0,0,0,0,0,0,0,0,0.1734,0.1736,0.1762,0.1765,0.1769,0.1799,0.1788,0.1804,0.1824,0.1802,0.1827,0.1828,0.1849,0.1852,0.1854,0.1855,0.1857,0.1876,0.1877,0.1877,0.1877,0,0,0,0,0,0,0,0.1733,0.1735,0.1751,0.1762,0.1767,0.1785,0.1789,0.1791,0.1816,0.1804,0.1808,0.1815,0.1851,0.1853,0.1855,0.1858,0.1876,0.1877,0.1877,0.1877,0.1941,0.1943,0,0,0,0,0,0,0.1729,0.1733,0.175,0.1753,0.1756,0.1784,0.1788,0.1786,0.1817,0.1823,0.1814,0.1817,0.1851,0.1855,0.1857,0.1928,0.1877,0.1877,0.1878,0.194,0.1942,0.1943,0,0,0,0,0,0,0.1728,0.1729,0.1748,0.1746,0.175,0.1783,0.1781,0.1787,0.1828,0.1824,0.1831,0.1853,0.1853,0.1856,0.1891,0.1927,0.1878,0.1878,0.1938,0.1941,0.1942,0.2009,0,0,0,0,0,0,0.1727,0.1728,0.1746,0.1745,0.175,0.1774,0.178,0.1787,0.1829,0.1834,0.1859,0.1863,0.1854,0.1891,0.1892,0.1927,0.1879,0.1937,0.1939,0.1942,0.2005,0.2013,0.202,0,0,0,0,0,0.1726,0.1736,0.1746,0.175,0.1766,0.1775,0.178,0.1806,0.183,0.1849,0.1871,0.1864,0.1907,0.1892,0.1894,0.1929,0.1936,0.1939,0.1941,0.2002,0.2012,0.202,0,0,0,0,0,0,0.174,0.1741,0.1753,0.1766,0.1782,0.1785,0.1812,0.1828,0.186,0.1879,0.1877,0.1882,0.1927,0.1917,0.19,0.1955,0.1922,0.1925,0.1967,0.1976,0.1983,0.1991,0.1879,0,0,0,0,0,0.1749,0.176,0.1763,0.1782,0.1792,0.181,0.1828,0.1844,0.1862,0.188,0.1896,0.1915,0.1932,0.1947,0.1956,0.1983,0.1995,0.2008,0.2015,0.2021,0.2029,0.2098,0.2113,0.1953,0.1953,0.1953,0,0,0.1762,0.1766,0.1776,0.1787,0.1806,0.1817,0.1825,0.1859,0.1879,0.1878,0.1925,0.1944,0.1945,0.1979,0.1998,0.1981,0.2069,0.2025,0.203,0.2034,0.2103,0.2118,0.2133,0.1955,0.1954,0.1954,0,0,0.1776,0.1798,0.1806,0.182,0.1849,0.1855,0.1873,0.1894,0.1921,0.1959,0.1967,0.2009,0.2032,0.2041,0.2047,0.2098,0.2107,0.2108,0.2152,0.222,0.2234,0.2247,0.2267,0.2281,0.2111,0.2111,0.2111,0,0.1799,0.1801,0.1815,0.1826,0.1843,0.1874,0.1889,0.1912,0.1946,0.1974,0.1987,0.2053,0.2059,0.2099,0.2122,0.2116,0.2147,0.2119,0.2232,0.2244,0.2256,0.2274,0.2288,0.2115,0.2114,0.2114,0.2114,0,0.1801,0.1822,0.1834,0.1852,0.1873,0.1897,0.1919,0.1959,0.2002,0.2027,0.2098,0.2116,0.2159,0.2169,0.2164,0.2247,0.2238,0.2235,0.2212,0.2277,0.229,0.2304,0.212,0.2119,0.2118,0.2117,0,0,0.1799,0.1829,0.1837,0.1849,0.1892,0.19,0.1949,0.1991,0.2039,0.2093,0.2158,0.2199,0.2239,0.2248,0.2257,0.2312,0.2416,0.2321,0.2323,0.2345,0.2553,0.2399,0.2398,0.2453,0.2457,0.2459,0.2524,0,0.1802,0.1817,0.1837,0.1867,0.1874,0.1923,0.1963,0.2015,0.2073,0.2146,0.2198,0.2267,0.2258,0.2306,0.2361,0.2414,0.246,0.2397,0.2484,0.2485,0.2344,0.2412,0.2469,0.2534,0.2537,0.2539,0.2541,0,0.179,0.1801,0.1825,0.1868,0.188,0.1914,0.1993,0.2036,0.2141,0.2195,0.2281,0.2333,0.2426,0.2416,0.2536,0.2508,0.2539,0.2566,0.2569,0.2412,0.2357,0.2459,0.2566,0.2564,0.2562,0.2561,0.2559,0,0.1754,0.1791,0.1811,0.1825,0.188,0.1922,0.1972,0.2067,0.2119,0.2253,0.2318,0.2423,0.251,0.2575,0.2635,0.2615,0.2758,0.2728,0.2602,0.259,0.268,0.2666,0.281,0.281,0.281,0.281,0.2809,0,0.1724,0.1745,0.1804,0.1813,0.1852,0.1914,0.1993,0.2054,0.2176,0.2243,0.2356,0.2419,0.2571,0.2659,0.2679,0.2683,0.2797,0.2619,0.2608,0.2701,0.269,0.2689,0.2674,0.2812,0.2811,0.2811,0.2811,0,0.1667,0.1714,0.173,0.18,0.1834,0.1865,0.1992,0.2038,0.2174,0.227,0.2326,0.2479,0.2591,0.2683,0.2805,0.2733,0.2752,0.2719,0.2804,0.2796,0.2519,0.2507,0.2575,0.2571,0.2567,0.2563,0.2561,0,0.1631,0.164,0.1706,0.1719,0.1757,0.1834,0.1883,0.2022,0.2066,0.2269,0.2284,0.247,0.255,0.2581,0.2695,0.2723,0.2693,0.2674,0.2594,0.2518,0.2502,0.2496,0.2489,0.2554,0.2553,0.2552,0.2551,0,0.1553,0.1594,0.1606,0.1636,0.168,0.1719,0.1803,0.1828,0.1988,0.2138,0.2208,0.2284,0.2404,0.2488,0.2547,0.2552,0.2672,0.2631,0.2638,0.2563,0.2494,0.248,0.2478,0.2537,0.2539,0.2541,0.2542,0,0.1504,0.1479,0.1509,0.1524,0.1574,0.1571,0.1637,0.1695,0.1773,0.1987,0.2016,0.2199,0.2379,0.24,0.244,0.2456,0.2412,0.2321,0.2344,0.236,0.2263,0.2141,0.2078,0,0,0,0,0,0.1436,0.1396,0.1392,0.1387,0.1435,0.147,0.1557,0.1628,0.1795,0.1789,0.19,0.1994,0.2096,0.219,0.2164,0.2339,0.2413,0.2297,0.2317,0.2462,0.2477,0.2384,0,0,0,0,0,0,0.138,0.1375,0.1344,0.1283,0.1271,0.1302,0.1356,0.1466,0.1467,0.1656,0.1717,0.188,0.2,0.2104,0.2133,0.2162,0.2132,0.242,0.2415,0.2453,0.2467,0.248,0.2389,0,0,0,0,0]},{"header":{"parameterUnit":"m.s-1","parameterCategory":2,"la1":30.2991,"la2":30.254,"lo1":-89.0895,"lo2":-89.0444,"dy":0.0017,"dx":0.0017,"nx":28,"ny":28,"refTime":"2024-06-02T03:00:00:Z","depth":"4","parameterNumber":3,"parameterNumberName":"V-component_of_CURRENTS"},"data":[0,0,0,0,0,0,0,0,0,0,0,0,0,0,0,0,0,0,0,0,0,0,0,0,0,0,0,0,0,0,0,0,0,0,0,0,0,0,0,0,0,0,0,0,0,0,0,0,0,0,0,0,0,0,0,0,0,0,0.0012,0.0012,0,-0.0012,-0.0013,-0.0013,-0.0034,-0.0034,-0.0035,-0.0035,-0.0062,-0.0062,-0.0063,0,0,0,0,0,0,0,0,0,0,0,0,0,0.0031,0.0031,0.0012,0.0012,0.0011,-0.0012,-0.0013,-0.0013,-0.0034,-0.0034,-0.0035,-0.0035,-0.0061,-0.0062,-0.0063,0,0,0,0,0,0,0,0,0,0,0,0,0,0.0016,0.003,0.0012,-0.0001,-0.0003,-0.0012,-0.0013,-0.0013,-0.0034,-0.0034,-0.0035,-0.0035,-0.0061,-0.0062,-0.0063,-0.0062,0,0,-0.0065,-0.0066,0,0,0,0,0,0,0,0,0.0016,0.0015,0.0001,-0.0001,-0.0002,-0.002,-0.0016,-0.003,-0.0034,-0.0023,-0.0035,-0.0035,-0.0047,-0.0049,-0.0054,-0.0064,-0.0065,-0.0065,-0.0066,-0.0066,-0.0066,0,0,0,0,0,0,0,0.0018,0.0016,0.0002,0.0001,-0.0001,-0.0009,-0.0012,-0.0019,-0.0034,-0.0024,-0.0025,-0.0027,-0.0048,-0.0053,-0.0055,-0.0065,-0.0065,-0.0066,-0.0067,-0.0067,-0.0077,-0.0076,0,0,0,0,0,0,0.0023,0.0017,0.0002,0.0001,0.0007,-0.0009,-0.0012,-0.0014,-0.0034,-0.0037,-0.0027,-0.0028,-0.0052,-0.0054,-0.0056,-0.0051,-0.0066,-0.0067,-0.0067,-0.0077,-0.0077,-0.0076,0,0,0,0,0,0,0.0023,0.0022,0.0003,0.0009,0.0006,-0.0009,-0.0012,-0.0015,-0.0019,-0.0036,-0.0039,-0.0027,-0.0052,-0.0055,-0.0059,-0.0052,-0.0067,-0.0068,-0.0077,-0.0077,-0.0077,-0.0044,0,0,0,0,0,0,0.0024,0.0022,0.0024,0.0009,0.0006,0.0003,-0.0012,-0.0015,-0.0019,-0.0021,-0.0037,-0.004,-0.0052,-0.0057,-0.0059,-0.0054,-0.0069,-0.0077,-0.0077,-0.0077,-0.0046,-0.0043,-0.0041,0,0,0,0,0,0.0024,0.0031,0.0024,0.0023,0.0009,0.0003,0.0001,-0.0012,-0.0019,-0.0017,-0.0028,-0.004,-0.0056,-0.0057,-0.006,-0.0055,-0.0078,-0.0077,-0.0077,-0.0047,-0.0044,-0.0041,0,0,0,0,0,0,0.0043,0.0029,0.0022,0.0024,0.0016,-0.0,0.0002,-0.0008,-0.0016,-0.0017,-0.0035,-0.0039,-0.0041,-0.0051,-0.0052,-0.0057,-0.0069,-0.0069,-0.0046,-0.0043,-0.004,-0.0026,-0.0069,0,0,0,0,0,0.0048,0.0048,0.0033,0.0037,0.0033,0.0018,0.0015,0.0006,-0.0004,-0.0008,-0.002,-0.0032,-0.0041,-0.0044,-0.0055,-0.0054,-0.0077,-0.0053,-0.005,-0.0048,-0.0038,-0.0073,-0.0073,-0.0075,-0.0075,-0.0075,0,0,0.0056,0.0049,0.0049,0.0041,0.0033,0.004,0.0015,0.0014,0.0021,-0.0009,-0.0002,-0.0023,-0.004,-0.0041,-0.0043,-0.0048,-0.0062,-0.0047,-0.0045,-0.0036,-0.0073,-0.0073,-0.0073,-0.0074,-0.0074,-0.0074,0,0,0.0076,0.0067,0.0075,0.0071,0.0063,0.0057,0.0059,0.0044,0.0039,0.004,0.0018,0.0002,-0.0006,-0.0021,-0.0029,-0.0018,-0.0049,-0.0022,0.0005,-0.0029,-0.0029,-0.003,-0.0067,-0.0071,-0.0019,-0.0018,-0.0018,0,0.0087,0.0096,0.0077,0.0086,0.0091,0.0069,0.0084,0.0077,0.0064,0.0062,0.0049,0.0024,0.0004,-0.0001,0.0,-0.0011,-0.0037,-0.0005,-0.0026,-0.0027,-0.0028,-0.0066,-0.0071,-0.0017,-0.0017,-0.0017,-0.0017,0,0.0113,0.0123,0.0129,0.0135,0.0137,0.0146,0.0136,0.0137,0.0128,0.0115,0.0103,0.007,0.0056,0.0042,0.0026,0.0012,-0.0008,-0.0021,-0.0033,-0.0026,-0.0067,-0.0073,-0.0015,-0.0015,-0.0016,-0.0016,0,0,0.0137,0.0145,0.015,0.0167,0.0165,0.0175,0.0186,0.0189,0.0202,0.0173,0.0178,0.0144,0.0116,0.0106,0.0073,0.0042,0.0003,0.0012,0.0009,-0.0024,-0.0078,-0.0081,-0.0088,-0.0017,-0.0017,-0.0018,-0.0107,0,0.0166,0.0197,0.0193,0.0234,0.0252,0.0241,0.0258,0.0256,0.0245,0.0244,0.0195,0.0188,0.0144,0.0136,0.0095,0.003,-0.0009,0.0029,-0.0081,-0.0084,-0.0087,-0.0093,-0.0019,-0.0111,-0.0113,-0.0114,-0.0114,0,0.0196,0.0216,0.0254,0.029,0.0297,0.032,0.0346,0.0359,0.0342,0.033,0.0301,0.026,0.0213,0.0174,0.0062,0.0087,0.0011,-0.0047,-0.0052,-0.0066,-0.0097,-0.0119,-0.0125,-0.0124,-0.0123,-0.0123,-0.0122,0,0.0231,0.0265,0.0301,0.0311,0.034,0.0363,0.0386,0.0385,0.0409,0.0387,0.0391,0.0318,0.0293,0.0187,0.0063,0.0062,-0.0068,-0.0085,-0.0163,-0.0165,-0.015,-0.0148,-0.0166,-0.0166,-0.0166,-0.0166,-0.0166,0,0.0265,0.03,0.0324,0.0347,0.0405,0.0408,0.0468,0.0472,0.0484,0.0516,0.0442,0.0439,0.0297,0.0203,0.0079,-0.0059,-0.006,-0.0157,-0.0186,-0.0135,-0.0131,-0.0154,-0.0152,-0.0169,-0.0168,-0.0168,-0.0167,0,0.0293,0.0308,0.036,0.0402,0.0424,0.0467,0.0539,0.0576,0.0577,0.0615,0.0612,0.0532,0.041,0.0252,0.0079,-0.0022,-0.0164,-0.0216,-0.0152,-0.0176,-0.0244,-0.0239,-0.0305,-0.0306,-0.0307,-0.0307,-0.0308,0,0.0309,0.0335,0.0402,0.0444,0.0469,0.0538,0.0587,0.0621,0.0662,0.0672,0.0687,0.0589,0.0514,0.0269,0.0091,-0.0151,-0.0186,-0.0263,-0.0252,-0.0236,-0.0257,-0.0251,-0.0245,-0.0309,-0.0309,-0.0309,-0.031,0,0.0342,0.0364,0.0407,0.0487,0.0552,0.063,0.0703,0.074,0.0779,0.0781,0.0757,0.063,0.0492,0.0286,0.0094,-0.0081,-0.0214,-0.027,-0.027,-0.0261,-0.0242,-0.026,-0.0254,-0.0312,-0.0312,-0.0311,-0.0311,0,0.037,0.04,0.0456,0.053,0.0616,0.0696,0.0735,0.0784,0.0826,0.0831,0.082,0.0666,0.058,0.0322,0.0144,-0.0029,-0.0071,-0.0125,-0.0133,-0.0133,-0.006,-0.0009,-0.003,0,0,0,0,0,0.039,0.0427,0.0496,0.0581,0.0665,0.0718,0.08,0.0829,0.0865,0.0861,0.0847,0.0718,0.0469,0.0356,0.0185,0.0112,-0.0117,-0.0096,-0.0187,-0.0325,-0.0322,-0.0267,0,0,0,0,0,0,0.0406,0.0466,0.0495,0.0612,0.0674,0.0772,0.0828,0.085,0.0849,0.0855,0.0724,0.0673,0.0424,0.0569,0.0182,0.0128,0.0047,-0.0211,-0.0215,-0.0327,-0.0324,-0.0322,-0.0264,0,0,0,0,0]}]]